Amman, Jordan

5:16 PM EEST on May 23, 2017 (GMT +0300)
Amman

Weather History for 40270 - March, 2013

Change the Weather History Date:

Saturday, March 16, 2013

  Actual Average Record
Temperature  
Mean Temperature 56 °F -  
Max Temperature 63 °F 66 °F - ()
Min Temperature 50 °F 47 °F - ()
Degree Days  
Heating Degree Days 8    
Growing Degree Days 6 (Base 50)    
Moisture  
Dew Point 44 °F    
Average Humidity 53    
Maximum Humidity 77    
Minimum Humidity 22    
Precipitation  
Precipitation 0.00 in 0.04 in - ()
Sea Level Pressure  
Sea Level Pressure 29.86 in    
Wind  
Wind Speed 10 mph ()    
Max Wind Speed 16 mph    
Max Gust Speed -    
Visibility 2.4 miles    
Events      
T = Trace of Precipitation, MM = Missing Value Source: Averaged Metar Reports

Daily Weather History Graph

Daily Weather History Graph

Search for Another Location

Airport or City:

Trip Planner

Search our weather history database for the weather conditions in past years. The results will help you decide how hot, cold, wet, or windy it might be!

Date:

Astronomy

Mar. 16, 2013 Rise Set
Actual Time 6:45 AM EEST 6:44 PM EEST
Civil Twilight 6:20 AM EEST 7:09 PM EEST
Nautical Twilight 5:52 AM EEST 7:37 PM EEST
Astronomical Twilight 5:23 AM EEST 8:06 PM EEST
Moon 9:17 AM EEST (3/16) 11:16 PM EEST (3/16)
Length of Visible Light 12h 48m
Length of Day
11h 59m
Waxing Crescent, 20% of the Moon is Illuminated
Mar 16
Waxing Crescent
Mar 19
First Quarter
Mar 27
Full
Apr 3
Last Quarter
Apr 10
New

Hourly Weather History & Observations

Time (EEST) Temp. Dew Point Humidity Pressure Visibility Wind Dir Wind Speed Gust Speed Precip Events Conditions
12:00 AM 78 °F 46 °F 22% 29.70 in 3 mi South 11.5 mph - -   Widespread Dust
12:00 AM 77.0 °F 46.4 °F 34% 29.86 in 1.9 mi South 11.5 mph - N/A   Unknown
1:00 AM 77.0 °F 44.6 °F 32% 29.86 in 1.9 mi South 11.5 mph - N/A   Unknown
2:00 AM 73.4 °F 44.6 °F 36% 29.86 in 1.9 mi WSW 16.1 mph - N/A   Unknown
3:00 AM 73 °F 46 °F 28% 29.70 in 2 mi WSW 11.5 mph - -   Haze
3:00 AM 73.4 °F 46.4 °F 38% 29.86 in 2.5 mi WSW 11.5 mph - N/A   Unknown
4:00 AM 69.8 °F 50.0 °F 49% 29.83 in 2.5 mi WSW 10.4 mph - N/A   Unknown
5:00 AM 68.0 °F 48.2 °F 49% 29.83 in 3.1 mi WSW 6.9 mph - N/A   Unknown
6:00 AM 65 °F 48 °F 44% 29.71 in 2 mi SSW 8.1 mph - -   Widespread Dust
6:00 AM 66.2 °F 48.2 °F 52% 29.83 in 2.5 mi SSW 8.1 mph - N/A   Unknown
7:00 AM 59.0 °F 50.0 °F 72% 29.86 in 1.9 mi North 4.6 mph - N/A   Unknown
8:00 AM 57.2 °F 50.0 °F 77% 29.89 in 1.9 mi NNW 9.2 mph - N/A   Unknown
9:00 AM 55 °F 49 °F 72% 29.80 in 2 mi NW 11.5 mph - -   Widespread Dust
9:00 AM 55.4 °F 48.2 °F 77% 29.89 in 1.9 mi NW 11.5 mph - N/A   Unknown
10:00 AM 57.2 °F 48.2 °F 72% 29.95 in 1.9 mi NNW 6.9 mph - N/A   Unknown
11:00 AM 57.2 °F 48.2 °F 72% 29.89 in 1.9 mi NNW 5.8 mph - N/A   Unknown
12:00 PM 59 °F 41 °F 40% 29.81 in 2 mi West 11.5 mph - -   Widespread Dust
12:00 PM 59.0 °F 41.0 °F 51% 29.92 in 1.9 mi West 11.5 mph - N/A   Unknown
1:00 PM 59.0 °F 42.8 °F 55% 29.92 in 1.9 mi West 9.2 mph - N/A   Unknown
2:00 PM 60.8 °F 42.8 °F 52% 29.89 in 2.5 mi West 13.8 mph - N/A   Unknown
3:00 PM 62 °F 42 °F 35% 29.80 in 2 mi WNW 10.4 mph - -   Widespread Dust
3:00 PM 62.6 °F 41.0 °F 45% 29.89 in 2.5 mi WNW 10.4 mph - N/A   Unknown
4:00 PM 62.6 °F 41.0 °F 45% 29.89 in 2.5 mi WNW 8.1 mph - N/A   Unknown
5:00 PM 60.8 °F 42.8 °F 52% 29.89 in 2.5 mi WNW 16.1 mph - N/A   Partly Cloudy
6:00 PM 58 °F 42 °F 44% 29.83 in 3 mi NW 16.1 mph - -   Widespread Dust
6:00 PM 57.2 °F 42.8 °F 59% 29.89 in 2.5 mi NW 16.1 mph - N/A   Unknown
7:00 PM 53.6 °F 44.6 °F 72% 29.89 in 2.5 mi WNW 13.8 mph - N/A   Haze
8:00 PM 51.8 °F 41.0 °F 67% 29.92 in 3.1 mi West 13.8 mph - N/A   Haze
9:00 PM 51 °F 38 °F 52% 29.91 in 3 mi West 11.5 mph - -   Haze
9:00 PM 51.8 °F 39.2 °F 62% 29.92 in 3.1 mi West 11.5 mph - N/A   Haze
10:00 PM 50.0 °F 39.2 °F 66% 29.92 in 3.1 mi WNW 4.6 mph - N/A   Haze
11:00 PM 50.0 °F 39.2 °F 66% 29.92 in 3.1 mi WNW 5.8 mph - N/A   Haze